Air Resources Laboratory banner image
Air Resources Laboratory web site National Oceanic and Atmospheric Administration (NOAA)

ct roundup


Office: OKX

ASUS41 KOKX 150008
RWROKX

REGIONAL WEATHER ROUNDUP
NATIONAL WEATHER SERVICE NEW YORK NY
700 PM EST THU DEC 14 2017

NOTE: "FAIR" INDICATES FEW OR NO CLOUDS BELOW 12,000 FEET WITH NO
SIGNIFICANT WEATHER AND/OR OBSTRUCTIONS TO VISIBILITY.

NYZ071-072-176-178-NJZ106-104-150100-
NEW YORK CITY METRO AREA

CITY           SKY/WX    TMP DP  RH WIND       PRES   REMARKS
Central Park   CLEAR     26   7  44 VRB5      30.02R WCI  20
Bronx Bot Gard   N/A     27   7  43 W9        30.00S WCI  17
Bronx Lehman C NOT AVBL
LaGuardia APRT PTCLDY    28  12  51 NW14      30.00R WCI  17
Queens College NOT AVBL
Kennedy INTL   MOCLDY    27   9  46 NW17      30.02R WCI  14
Breezy Point     N/A    N/A N/A N/A NW15G22     N/A
Brooklyn Coll  NOT AVBL
Staten Island  NOT AVBL
Newark/Liberty PTCLDY    26   7  44 NW10G20   30.02R WCI  16
Teterboro      CLEAR     26   7  44 NW13G24   30.00R WCI  15
$$

NYZ177-179-078>081-150100-
LONG ISLAND NEW YORK

CITY           SKY/WX    TMP DP  RH WIND       PRES   REMARKS
Jones Beach      N/A    N/A N/A N/A NW13G18     N/A
Wantagh        NOT AVBL
Matinecock PT    N/A    N/A N/A N/A W24         N/A
Farmingdale    CLEAR     26   6  42 NW10G22   29.99R WCI  16
MacArthur/ISP  MOCLDY    26   7  44 NW15      29.97R WCI  14
Shirley        PTCLDY    26   9  48 NW12      29.97R WCI  16
Mt Sinai Harb    N/A    N/A N/A N/A NW15G21     N/A
Westhampton    CLEAR     25  10  53 W12       29.97R WCI  14
East Hampton   FAIR      27  10  47 NW8       29.94R WCI  19
Southold       NOT AVBL
Montauk          N/A     30  11  45 NW15G22   29.94R WCI  19
$$

NYZ052-065-067-150100-
HUDSON VALLEY

CITY           SKY/WX    TMP DP  RH WIND       PRES   REMARKS
White Plains   PTCLDY    23   5  46 W17       29.96R WCI   9
Larchmont Harb   N/A    N/A N/A N/A W14         N/A
Croton On Huds   N/A    N/A N/A N/A NW20G28     N/A
Somers         NOT AVBL
Brewster       NOT AVBL
Newburgh       CLEAR     19   7  58 NW17      29.98R WCI   4
Montgomery     CLEAR     19   1  45 VRB6      29.99R WCI  11
Otisville      NOT AVBL
Warwick        NOT AVBL
Suffern        NOT AVBL
Poughkeepsie   CLEAR     21   2  43 W12       29.99R WCI   9
Albany         MOCLDY    17   4  56 W10       29.98R WCI   5
$$

NJZ001-105-106-008-010-013-015-019>022-104-150100-
NEW JERSEY

CITY           SKY/WX    TMP DP  RH WIND       PRES   REMARKS
Newark/Liberty PTCLDY    26   7  44 NW10G20   30.02R WCI  16
Teterboro      CLEAR     26   7  44 NW13G24   30.00R WCI  15
Caldwell       CLEAR     23   7  50 NW5       30.02R WCI  17
Somerville     CLEAR     21   9  59 N3        30.01R
Linden         FAIR      26   8  45 NW9       30.03R WCI  17
Perth Amboy      N/A    N/A N/A N/A NW13G18     N/A
Sussex         CLEAR     20   6  55 VRB3      29.99R
Andover        NOT AVBL
Trenton        CLEAR     27  10  49 CALM      30.02R
Millville      PTCLDY    28  15  58 CALM      30.04R
Atlantic City  PTCLDY    27  15  61 CALM      30.04R
Wrightstown    CLOUDY    27  12  53 NW9       30.00R WCI  18
Toms River     CLEAR     25  14  63 W3        30.04R
Belmar         CLEAR     26  12  55 W7        30.03R WCI  18
$$

PAZ047>061-062-071-150100-
EASTERN PENNSYLVANIA

CITY           SKY/WX    TMP DP  RH WIND       PRES   REMARKS
Philadelphia   PTCLDY    31   9  39 NW8       30.05R WCI  23
Allentown      CLEAR     24   5  44 NW3       30.01R
Scranton       CLEAR     19   4  51 NW9       29.99R WCI   8
$$

CTZ002-004>006-009-010-012-RIZ004-006-007-MAZ004-011-015-150100-
SOUTHERN NEW ENGLAND
 IN CT

CITY           SKY/WX    TMP DP  RH WIND       PRES   REMARKS
Bradley INTL   CLEAR     17   3  54 W8        29.97R WCI   7
Hartford       CLEAR     21   3  45 NW8       29.98R WCI  11
Danbury        CLEAR     22   3  44 W8        29.97R WCI  12
Wtrbury/Oxford CLEAR     19   4  51 NW5       29.93R WCI  12
Norwalk Harbor   N/A    N/A N/A N/A W15         N/A
Bridgeport     CLEAR     25   5  42 W9        29.98R WCI  15
Meriden        PTCLDY    22   3  44 NW5       29.97R WCI  16
New Haven      CLEAR     27   7  42 W13       29.97R WCI  16
Chester        FAIR      23   3  42 NW8G15    29.93R WCI  14
Groton         CLEAR     24   6  46 NW9       29.94R WCI  14
Wilimantic     CLEAR     21   1  41 NW8       29.96R WCI  11

 IN RI

CITY           SKY/WX    TMP DP  RH WIND       PRES   REMARKS
Providence     CLEAR     21   3  45 W13       29.93R WCI   9
Block Island   CLEAR     25  10  53 NW15G21   29.93R WCI  13
Westerly       CLEAR     24   4  42 NW7       29.95R WCI  16
 IN MA

CITY           SKY/WX    TMP DP  RH WIND       PRES   REMARKS
Boston         CLEAR     24   3  40 W20G28    29.88R WCI  10
Worcester      CLEAR     15  -2  46 W12G21    29.83R WCI   2
Westfield      CLEAR     18   3  52 NW9       29.95R WCI   7
Provincetown   CLEAR     27  11  51 W16G24    29.87R WCI  15
Nantucket      CLEAR     26  13  57 W13       29.87R WCI  15
$$

ANZ330-335-338-340-345-350-353-355-150100-
COASTAL MARINE OBSERVATIONS


STATION/POSITION TIME  SKY/WX   TEMP    WIND        PRES    VSBY  WAVE
                                AIR SEA DIR/SP/G                  HT/PER
                 (UTC)          (F)     (DEG/KT/KT) (MB)    (MI)  (FT/S)
NY HARB ENTRANCE 2250            33 52  310/ 21/ 27 1013.6          4/ 5
20 S FIRE ISLAND 2250            34 51  320/ 21/ 27 1013.3          6/ 5
GREAT SOUTH BAY  2330            28 45  300/ 16/ 19   N/A
HUDSON CANYON    2250            38 56  310/ 21/ 27 1012.6          8/ 7
KINGS POINT      2330            28 42   10/ 15/ 19 1016.3
EXECUTION ROCKS  2330            29     300/ 16/ 21   N/A
WESTERN LI SOUND NOT AVBL
CENTRAL LI SOUND 2300            31     320/ 16/ 21   N/A           3
ROBBINS REEF     2330            28     300/ 14/ 18 1016.3
$$


>>>>>>>>>>>>>>>>>>>>>>>>>>>> KEY <<<<<<<<<<<<<<<<<<<<<<<<<<<
>                                                          <
>     SKY/WX - Sky Condition/Present Weather               <
>     TMP    - Temperature in Fahrenheit                   <
>     DP     - Dew Point in Fahrenheit                     <
>     RH     - Relative Humidity in Percent                <
>     WIND   - Direction (from) and Speed in MPH           <
>     PRES   - Mean Sea Level Pressure (inches of Hg)      <
>     WCI    - Wind Chill Index                            <
>     VSB    - VISIBILITY IN MILES                         <
>     HX     - HEAT INDEX                                  <
>     TC     - TEMPERATURE IN CELSIUS                      <
>     VRB    - VARIABLE WIND DIRECTION                     <
>                                                          <
>>>>>>>>>>>>>>>>>>>>>>>>>>>> KEY <<<<<<<<<<<<<<<<<<<<<<<<<<<




Office: BOX ASUS41 KBOX 150010 RWRBOX REGIONAL WEATHER ROUNDUP NATIONAL WEATHER SERVICE TAUNTON MA 700 PM EST THU DEC 14 2017 NOTE: "FAIR" INDICATES FEW OR NO CLOUDS BELOW 12,000 FEET WITH NO SIGNIFICANT WEATHER AND/OR OBSTRUCTIONS TO VISIBILITY. MAZALL-150100- EASTERN MASSACHUSETTS CITY SKY/WX TMP DP RH WIND PRES REMARKS BOSTON CLEAR 24 3 40 W20G28 29.88R WCI 10 6HR MIN TEMP: 24; 6HR MAX TEMP: 30; BEVERLY CLEAR 23 4 44 W15G23 29.85R WCI 10 LAWRENCE CLEAR 24 5 44 W16 29.86R WCI 11 BEDFORD CLEAR 20 1 43 W8 29.87R WCI 10 BLUE HILL N/A 20 2 45 W21G30 29.83R WCI 4 NORWOOD CLEAR 24 1 36 W9G22 29.90R WCI 14 MARSHFIELD CLEAR 25 5 42 VRB6G13 29.87R WCI 18 PLYMOUTH CLEAR 24 3 40 W9 29.88R WCI 14 TAUNTON CLEAR 22 1 40 W10G21 29.90R WCI 11 NEW BEDFORD CLEAR 22 3 44 W15 29.90R WCI 9 $$ MAZALL-150100- CAPE COD AND THE ISLANDS CITY SKY/WX TMP DP RH WIND PRES REMARKS FALMOUTH CLEAR 23 5 46 W17G23 29.88R WCI 9 HYANNIS CLEAR 24 7 48 W8G18 29.85R WCI 15 CHATHAM CLEAR 22 13 68 CALM 29.86R PROVINCETOWN CLEAR 27 11 51 W16G24 29.87R WCI 15 NANTUCKET CLEAR 26 13 57 W13 29.87R WCI 15 MARTHAS VNYRD CLEAR N/A N/A N/A NW14G23 29.89R $$ MAZALL-150100- CENTRAL AND WESTERN MASSACHUSETTS CITY SKY/WX TMP DP RH WIND PRES REMARKS WORCESTER CLEAR 15 -2 46 W12G21 29.83R WCI 2 6HR MIN TEMP: 15; 6HR MAX TEMP: 24; FITCHBURG CLEAR 20 3 48 W8 29.88R WCI 10 ORANGE NOT AVBL SPRINGFIELD PTCLDY 17 2 52 W9 29.94R WCI 6 WESTFIELD CLEAR 18 3 52 NW9 29.95R WCI 7 NORTH ADAMS CLOUDY 15 5 64 W10 29.92R WCI 2 PITTSFIELD CLEAR 12 1 61 W7 29.88R WCI 1 $$ RIZALL-150100- RHODE ISLAND CITY SKY/WX TMP DP RH WIND PRES REMARKS PROVIDENCE CLEAR 21 3 45 W13 29.93R WCI 9 6HR MIN TEMP: 21; 6HR MAX TEMP: 30; NEWPORT CLEAR 23 2 40 W16G29 29.90R WCI 10 BLOCK ISLAND CLEAR 25 10 53 NW15G21 29.93R WCI 13 SMITHFIELD CLEAR 18 2 49 W10 29.89R WCI 6 WESTERLY CLEAR 24 4 42 NW7 29.95R WCI 16 $$ CTZALL-150100- CONNECTICUT CITY SKY/WX TMP DP RH WIND PRES REMARKS BRADLEY INTL CLEAR 17 3 54 W8 29.97R WCI 7 6HR MIN TEMP: 17; 6HR MAX TEMP: 27; HARTFORD CLEAR 21 3 45 NW8 29.98R WCI 11 BRIDGEPORT CLEAR 25 5 42 W9 29.98R WCI 15 DANBURY CLEAR 22 3 44 W8 29.97R WCI 12 GROTON CLEAR 24 6 46 NW9 29.94R WCI 14 NEW HAVEN CLEAR 27 7 42 W13 29.97R WCI 16 CHESTER FAIR 23 3 42 NW8G15 29.93R WCI 14 MERIDEN PTCLDY 22 3 44 NW5 29.97R WCI 16 WILLIMANTIC CLEAR 21 1 41 NW8 29.96R WCI 11 OXFORD CLEAR 19 4 51 NW5 29.93R WCI 12 $$ MEZ002-015-021-024-NHZ003-005-008-011-012-014-VTZ005-008-150100- NORTHERN NEW ENGLAND CITY SKY/WX TMP DP RH WIND PRES REMARKS PORTLAND ME CLEAR 19 -2 39 W14 29.80R WCI 6 6HR MIN TEMP: 19; 6HR MAX TEMP: 26; BANGOR ME CLEAR 12 3 67 W5 29.72R WCI 4 CONCORD NH CLEAR 18 -3 39 W12G18 29.84R WCI 5 MANCHESTER NH CLEAR 21 1 41 VRB3 29.83R NASHUA NH CLEAR 18 4 54 W6 29.87 WCI 10 PORTSMOUTH NH CLEAR 20 -4 34 W13 29.82R WCI 8 JAFFREY NH CLEAR 14 2 58 VRB7 29.81R WCI 4 KEENE NH CLEAR 13 2 61 SW5 29.88R WCI 5 BURLINGTON VT CLEAR 13 -4 46 NW10 29.89R WCI 0 MT. WASHINGTON BLWGSNOW -15 -15 100 W64G71 N/A VSB 1/8 WCI -55 $$ NYZ052-076-150100- EASTERN NEW YORK CITY SKY/WX TMP DP RH WIND PRES REMARKS ALBANY MOCLDY 17 4 56 W10 29.98R WCI 5 6HR MIN TEMP: 15; 6HR MAX TEMP: 21; NEW YORK CITY PTCLDY 28 12 51 NW14 30.00R WCI 17 6HR MIN TEMP: 28; 6HR MAX TEMP: 33; $$ ANZALL-150100- MARINE OBSERVATIONS STATION/POSITION TIME TEMP WIND PRES VSBY WAVE AIR SEA DIR/SP/G HT/PER (UTC) (F) (DEG/KT/KT) (MB) (MI) (FT/S) BOSTON BUOY 2250 29 47 290/ 21/ 29 1009.0 3/ 4 BUZZARDS BAY 2300 27 300/ 23/ 27 1011.9R NANTUCKET SOUND 2250 30 43 300/ 21/ 27 1009.4 2/ 4 MASS BAY-STELLWA 2304 28 47 310/ 17/ 25 1009.2R 3/ 4 ISLE OF SHOALS 2300 24 290/ 26/ 31 1008.3R S OF BLOCK IS 2343 53 N/A 8/ 8 $$ ......................KEY......................... SKY/WX - SKY CONDITION/PRESENT WEATHER TMP - TEMPERATURE IN FAHRENHEIT DWPT - DEWPOINT IN FAHRENHEIT RH - RELATIVE HUMIDITY IN PERCENT WIND - DIRECTION AND SPEED IN MPH PRES - MEAN SEA LEVEL PRESSURE IN INCHES OF HG WCI - WIND CHILL INDEX VSB - VISIBILITY IN MILES HX - HEAT INDEX TC - TEMPERATURE IN CELSIUS VRB - VARIABLE WIND DIRECTION N/A - NOT AVAILABLE